Tracking 35275 objects as of 9-Sep-2026
HD Live streaming from Space Station
objects crossing your sky now

COSMOS 1823 DEB


COSMOS 1823 DEB is no longer on orbit


NORAD ID: 19840
Int'l Code: 1987-020CP
Launch date: February 20, 1987
Source: Commonwealth of Independent States (former USSR) (CIS)
Launch site: PLESETSK MISSILE AND SPACE COMPLEX (PKMTR)
Decay date: 1989-11-24

Note: This is SATELLITE DEBRIS
Your satellite tracking list
Your tracking list is empty




NASA's NSSDC Master Catalog

Two Line Element Set (TLE):
1 19840U 87020 CP 89327.98558424  .18571827 +00000-0 +1521901 0  9990
2 19840 073.7812 293.4109 0080414 221.3343 138.2107 14.96689050066164
Source of the keplerian elements: AFSPC